Data No,UTC Date,UTC Time,Latitude,Longitude,Course(deg),Temp(degC),Sal(psu)
4210,2007/3/8,1:11:06, 11-05.814N,100-00.202E,103.7,29.4849,31.7331
4211,2007/3/8,1:12:06, 11-05.762N,100-00.434E,105.3,29.4794,31.7438
4212,2007/3/8,1:13:06, 11-05.703N,100-00.665E,103.8,29.4768,31.7538
4213,2007/3/8,1:14:06, 11-05.643N,100-00.895E,103.8,29.4673,31.7605
4214,2007/3/8,1:15:06, 11-05.585N,100-01.125E,105.1,29.4508,31.7646
4215,2007/3/8,1:16:06, 11-05.524N,100-01.354E,105,29.4305,31.7667
4216,2007/3/8,1:17:06, 11-05.465N,100-01.585E,104.7,29.4194,31.7686
4217,2007/3/8,1:18:06, 11-05.406N,100-01.815E,103.4,29.4088,31.7686
4218,2007/3/8,1:19:06, 11-05.347N,100-02.045E,104.4,29.3928,31.7653
4219,2007/3/8,1:20:06, 11-05.285N,100-02.274E,105.9,29.3772,31.7655
4220,2007/3/8,1:21:06, 11-05.229N,100-02.504E,104.8,29.3753,31.7656
4221,2007/3/8,1:22:06, 11-05.171N,100-02.735E,103.2,29.3537,31.7668
4222,2007/3/8,1:23:06, 11-05.112N,100-02.963E,104.1,29.3515,31.7686
4223,2007/3/8,1:24:06, 11-05.051N,100-03.193E,104.3,29.348,31.7703
4224,2007/3/8,1:25:06, 11-04.993N,100-03.423E,105.3,29.3474,31.7729
4225,2007/3/8,1:26:06, 11-04.931N,100-03.654E,105.7,29.3469,31.7769
4226,2007/3/8,1:27:06, 11-04.871N,100-03.884E,105.4,29.3444,31.781
4227,2007/3/8,1:28:06, 11-04.812N,100-04.114E,103.5,29.333,31.784
4228,2007/3/8,1:29:06, 11-04.751N,100-04.344E,105.1,29.3282,31.7857
4229,2007/3/8,1:30:06, 11-04.694N,100-04.575E,104.3,29.3181,31.787
4230,2007/3/8,1:31:06, 11-04.633N,100-04.803E,105.8,29.3108,31.7877
4231,2007/3/8,1:32:06, 11-04.572N,100-05.036E,104.6,29.2986,31.7886
4232,2007/3/8,1:33:06, 11-04.511N,100-05.266E,104.7,29.2931,31.7904
4233,2007/3/8,1:34:06, 11-04.452N,100-05.495E,103.8,29.2862,31.7912
4234,2007/3/8,1:35:06, 11-04.391N,100-05.727E,105.2,29.2775,31.7912
4235,2007/3/8,1:36:06, 11-04.332N,100-05.958E,104.9,29.2672,31.7914
4236,2007/3/8,1:37:06, 11-04.272N,100-06.188E,104.8,29.2666,31.792
4237,2007/3/8,1:38:06, 11-04.213N,100-06.418E,104.6,29.2624,31.7946
4238,2007/3/8,1:39:06, 11-04.155N,100-06.651E,103.5,29.2591,31.7977
4239,2007/3/8,1:40:06, 11-04.094N,100-06.883E,105.5,29.2513,31.8005
4240,2007/3/8,1:41:06, 11-04.038N,100-07.113E,104.6,29.2494,31.8028
4241,2007/3/8,1:42:06, 11-03.974N,100-07.344E,104,29.2346,31.8057
4242,2007/3/8,1:43:06, 11-03.914N,100-07.575E,106.7,29.2321,31.8093
4243,2007/3/8,1:44:06, 11-03.853N,100-07.801E,104.6,29.2342,31.8125
4244,2007/3/8,1:45:06, 11-03.790N,100-08.032E,104.5,29.2285,31.8162
4245,2007/3/8,1:46:06, 11-03.730N,100-08.260E,105.5,29.223,31.8207
4246,2007/3/8,1:47:06, 11-03.672N,100-08.491E,105.4,29.2233,31.8255
4247,2007/3/8,1:48:06, 11-03.607N,100-08.722E,106.3,29.2277,31.8306
4248,2007/3/8,1:49:06, 11-03.546N,100-08.950E,104.4,29.2254,31.8335
4249,2007/3/8,1:50:06, 11-03.483N,100-09.180E,105.4,29.2167,31.8401
4250,2007/3/8,1:51:06, 11-03.424N,100-09.411E,106.5,29.2159,31.8428
4251,2007/3/8,1:52:06, 11-03.361N,100-09.641E,106.5,29.206,31.8463
4252,2007/3/8,1:53:06, 11-03.299N,100-09.870E,103.8,29.204,31.8509
4253,2007/3/8,1:54:06, 11-03.238N,100-10.099E,104.4,29.1993,31.8549
4254,2007/3/8,1:55:06, 11-03.178N,100-10.329E,105.1,29.1954,31.859
4255,2007/3/8,1:56:06, 11-03.117N,100-10.558E,105.6,29.1858,31.8605
4256,2007/3/8,1:57:06, 11-03.054N,100-10.786E,104.9,29.1735,31.8626
4257,2007/3/8,1:58:06, 11-02.993N,100-11.016E,105.8,29.1728,31.8647
4258,2007/3/8,1:59:06, 11-02.934N,100-11.247E,103.9,29.1694,31.8686
4259,2007/3/8,2:00:06, 11-02.871N,100-11.476E,105.5,29.1624,31.8735
4260,2007/3/8,2:01:06, 11-02.808N,100-11.705E,106.3,29.1597,31.8777
4261,2007/3/8,2:02:06, 11-02.747N,100-11.934E,104.4,29.1621,31.8814
4262,2007/3/8,2:03:06, 11-02.684N,100-12.164E,105,29.1587,31.8847
4263,2007/3/8,2:04:06, 11-02.624N,100-12.394E,106.8,29.1555,31.8895
4264,2007/3/8,2:05:06, 11-02.562N,100-12.622E,105.1,29.1571,31.8927
4265,2007/3/8,2:06:06, 11-02.498N,100-12.851E,104.3,29.1545,31.8949
4266,2007/3/8,2:07:06, 11-02.436N,100-13.081E,105.6,29.1601,31.8971
4267,2007/3/8,2:08:06, 11-02.376N,100-13.311E,103.9,29.1575,31.9001
4268,2007/3/8,2:09:06, 11-02.311N,100-13.541E,104.1,29.1636,31.9038
4269,2007/3/8,2:10:06, 11-02.253N,100-13.770E,105.8,29.1652,31.9085
4270,2007/3/8,2:11:06, 11-02.195N,100-13.998E,104.7,29.1687,31.9134
4271,2007/3/8,2:12:06, 11-02.136N,100-14.225E,105,29.1806,31.9186
4272,2007/3/8,2:13:06, 11-02.071N,100-14.456E,104.1,29.1847,31.9224
4273,2007/3/8,2:14:06, 11-02.009N,100-14.685E,103.7,29.183,31.9267
4274,2007/3/8,2:15:06, 11-01.950N,100-14.914E,105.6,29.1855,31.9296
4275,2007/3/8,2:16:06, 11-01.888N,100-15.145E,104.5,29.1926,31.9326
4276,2007/3/8,2:17:06, 11-01.825N,100-15.373E,106.3,29.1858,31.9346
4277,2007/3/8,2:18:06, 11-01.767N,100-15.604E,104.3,29.1756,31.9341
4278,2007/3/8,2:19:06, 11-01.703N,100-15.834E,103.9,29.1765,31.9322
4279,2007/3/8,2:20:06, 11-01.644N,100-16.064E,105.3,29.168,31.9329
4280,2007/3/8,2:21:06, 11-01.582N,100-16.292E,105.3,29.1706,31.935
4281,2007/3/8,2:22:06, 11-01.521N,100-16.520E,105.8,29.1678,31.9367
4282,2007/3/8,2:23:06, 11-01.459N,100-16.747E,104.8,29.1644,31.9373
4283,2007/3/8,2:24:06, 11-01.396N,100-16.974E,106.7,29.164,31.9372
4284,2007/3/8,2:25:06, 11-01.342N,100-17.204E,104.9,29.1653,31.9372
4285,2007/3/8,2:26:06, 11-01.285N,100-17.433E,105.6,29.1619,31.9365
4286,2007/3/8,2:27:06, 11-01.228N,100-17.660E,104.5,29.1623,31.9339
4287,2007/3/8,2:28:06, 11-01.169N,100-17.889E,103.1,29.1582,31.9324
4288,2007/3/8,2:29:06, 11-01.106N,100-18.118E,102,29.1517,31.9327
4289,2007/3/8,2:30:06, 11-01.064N,100-18.351E,101,29.1372,31.9356
4290,2007/3/8,2:31:06, 11-01.021N,100-18.581E,100.2,29.1324,31.939
4291,2007/3/8,2:32:06, 11-00.975N,100-18.812E,102.1,29.1304,31.9408
4292,2007/3/8,2:33:06, 11-00.934N,100-19.045E,103.6,29.1504,31.9433
4293,2007/3/8,2:34:06, 11-00.888N,100-19.277E,101.2,29.1639,31.9469
4294,2007/3/8,2:35:06, 11-00.841N,100-19.507E,97.7,29.1761,31.9498
4295,2007/3/8,2:36:06, 11-00.797N,100-19.737E,102.7,29.181,31.951
4296,2007/3/8,2:37:06, 11-00.752N,100-19.969E,101.8,29.184,31.9521
4297,2007/3/8,2:38:06, 11-00.694N,100-20.197E,106.5,29.1908,31.9555
4298,2007/3/8,2:39:06, 11-00.634N,100-20.424E,104,29.1929,31.9579
4299,2007/3/8,2:40:06, 11-00.577N,100-20.650E,106.6,29.1916,31.9604
4300,2007/3/8,2:41:06, 11-00.514N,100-20.875E,107.5,29.1945,31.9609
4301,2007/3/8,2:42:06, 11-00.455N,100-21.102E,105.9,29.1931,31.9584
4302,2007/3/8,2:43:06, 11-00.394N,100-21.329E,103.9,29.1911,31.9551
4303,2007/3/8,2:44:06, 11-00.331N,100-21.556E,107.6,29.1898,31.9523
4304,2007/3/8,2:45:06, 11-00.270N,100-21.782E,104,29.1919,31.9526
4305,2007/3/8,2:46:06, 11-00.210N,100-22.008E,104.5,29.188,31.953
4306,2007/3/8,2:47:06, 11-00.151N,100-22.233E,105.9,29.1953,31.9536
4307,2007/3/8,2:48:06, 11-00.092N,100-22.460E,101.9,29.2012,31.955
4308,2007/3/8,2:49:06, 11-00.025N,100-22.686E,105.8,29.2034,31.9572
4309,2007/3/8,2:50:06, 10-59.967N,100-22.911E,105,29.2141,31.9556
4310,2007/3/8,2:51:06, 10-59.907N,100-23.137E,104.9,29.2264,31.9578
4311,2007/3/8,2:52:06, 10-59.846N,100-23.362E,105.6,29.2237,31.9602
4312,2007/3/8,2:53:06, 10-59.787N,100-23.586E,105,29.235,31.9631
4313,2007/3/8,2:54:06, 10-59.722N,100-23.811E,105,29.2404,31.9663
4314,2007/3/8,2:55:06, 10-59.663N,100-24.036E,103.5,29.2481,31.9702
4315,2007/3/8,2:56:06, 10-59.600N,100-24.262E,106.4,29.2479,31.9749
4316,2007/3/8,2:57:06, 10-59.541N,100-24.486E,105.1,29.2391,31.9738
4317,2007/3/8,2:58:06, 10-59.479N,100-24.710E,104.8,29.2275,31.9691
4318,2007/3/8,2:59:06, 10-59.421N,100-24.936E,105,29.2039,31.9627
4319,2007/3/8,3:00:06, 10-59.359N,100-25.162E,105,29.1738,31.9549
4320,2007/3/8,3:01:06, 10-59.297N,100-25.387E,104.4,29.149,31.9479
4321,2007/3/8,3:02:06, 10-59.235N,100-25.611E,106.7,29.1368,31.9418
4322,2007/3/8,3:03:06, 10-59.175N,100-25.835E,105,29.1315,31.937
4323,2007/3/8,3:04:06, 10-59.114N,100-26.060E,106.4,29.1129,31.9305
4324,2007/3/8,3:05:06, 10-59.052N,100-26.284E,104.5,29.1,31.925
4325,2007/3/8,3:06:06, 10-58.987N,100-26.509E,107.2,29.0903,31.9172
4326,2007/3/8,3:07:06, 10-58.926N,100-26.734E,105.6,29.0899,31.9121
4327,2007/3/8,3:08:06, 10-58.863N,100-26.958E,104.5,29.078,31.9056
4328,2007/3/8,3:09:06, 10-58.803N,100-27.184E,106.6,29.0776,31.8991
4329,2007/3/8,3:10:06, 10-58.746N,100-27.409E,104.6,29.0762,31.8942
4330,2007/3/8,3:11:06, 10-58.681N,100-27.633E,104.6,29.0747,31.8915
4331,2007/3/8,3:12:06, 10-58.621N,100-27.858E,107.2,29.0653,31.8889
4332,2007/3/8,3:13:06, 10-58.560N,100-28.082E,104.7,29.0557,31.8833
4333,2007/3/8,3:14:06, 10-58.497N,100-28.306E,104.7,29.0524,31.8804
4334,2007/3/8,3:15:06, 10-58.437N,100-28.532E,105.9,29.0512,31.8759
4335,2007/3/8,3:16:06, 10-58.375N,100-28.755E,106.1,29.0532,31.875
4336,2007/3/8,3:17:06, 10-58.312N,100-28.979E,106.3,29.0518,31.8756
4337,2007/3/8,3:18:06, 10-58.248N,100-29.202E,104.2,29.0619,31.8762
4338,2007/3/8,3:19:06, 10-58.186N,100-29.426E,105.8,29.0645,31.8774
4339,2007/3/8,3:20:06, 10-58.126N,100-29.651E,104.8,29.0655,31.8785
4340,2007/3/8,3:21:06, 10-58.064N,100-29.876E,104.5,29.0766,31.8791
4341,2007/3/8,3:22:06, 10-58.004N,100-30.101E,106.8,29.0765,31.8792
4342,2007/3/8,3:23:06, 10-57.947N,100-30.328E,104.3,29.0807,31.8791
4343,2007/3/8,3:24:06, 10-57.887N,100-30.555E,105.6,29.0809,31.8794
4344,2007/3/8,3:25:06, 10-57.825N,100-30.780E,104.7,29.0877,31.8801
4345,2007/3/8,3:26:06, 10-57.767N,100-31.007E,105.9,29.0924,31.8803
4346,2007/3/8,3:27:06, 10-57.708N,100-31.234E,103.4,29.0851,31.8813
4347,2007/3/8,3:28:06, 10-57.656N,100-31.462E,98.6,29.0929,31.8812
4348,2007/3/8,3:29:06, 10-57.629N,100-31.694E,93.9,29.1006,31.8816
4349,2007/3/8,3:30:06, 10-57.605N,100-31.927E,92.7,29.0976,31.8824
4350,2007/3/8,3:31:06, 10-57.559N,100-32.156E,107.8,29.1074,31.8823
4351,2007/3/8,3:32:06, 10-57.500N,100-32.382E,103.4,29.1098,31.8836
4352,2007/3/8,3:33:06, 10-57.440N,100-32.609E,104.1,29.1113,31.8844
4353,2007/3/8,3:34:06, 10-57.384N,100-32.838E,106.3,29.1132,31.8863
4354,2007/3/8,3:35:06, 10-57.325N,100-33.064E,104.3,29.1155,31.8879
4355,2007/3/8,3:36:06, 10-57.266N,100-33.293E,105.8,29.1221,31.8893
4356,2007/3/8,3:37:06, 10-57.208N,100-33.521E,103.5,29.1162,31.8912
4357,2007/3/8,3:38:06, 10-57.149N,100-33.749E,104.5,29.1223,31.8938
4358,2007/3/8,3:39:06, 10-57.089N,100-33.977E,105.9,29.1313,31.8957
4359,2007/3/8,3:40:06, 10-57.031N,100-34.204E,104.1,29.136,31.897
4360,2007/3/8,3:41:06, 10-56.971N,100-34.432E,104.4,29.136,31.9004
4361,2007/3/8,3:42:06, 10-56.912N,100-34.660E,106.2,29.1444,31.9033
4362,2007/3/8,3:43:06, 10-56.856N,100-34.888E,104.5,29.1512,31.9066
4363,2007/3/8,3:44:06, 10-56.795N,100-35.115E,103.7,29.1507,31.9082
4364,2007/3/8,3:45:06, 10-56.740N,100-35.345E,105.5,29.1579,31.9102
4365,2007/3/8,3:46:06, 10-56.679N,100-35.571E,102.5,29.1684,31.9151
4366,2007/3/8,3:47:06, 10-56.620N,100-35.799E,103.7,29.1792,31.9196
4367,2007/3/8,3:48:06, 10-56.559N,100-36.025E,103.7,29.1855,31.9249
4368,2007/3/8,3:49:06, 10-56.501N,100-36.252E,105.4,29.1941,31.9287
4369,2007/3/8,3:50:06, 10-56.445N,100-36.480E,104,29.1983,31.9325
4370,2007/3/8,3:51:06, 10-56.385N,100-36.708E,101.8,29.2121,31.935
4371,2007/3/8,3:52:06, 10-56.324N,100-36.934E,105.2,29.2193,31.9393
4372,2007/3/8,3:53:06, 10-56.265N,100-37.161E,105.6,29.2259,31.944
4373,2007/3/8,3:54:06, 10-56.207N,100-37.389E,104.3,29.2291,31.9459
4374,2007/3/8,3:55:06, 10-56.147N,100-37.616E,104,29.2306,31.9491
4375,2007/3/8,3:56:06, 10-56.090N,100-37.844E,103.5,29.2502,31.9513
4376,2007/3/8,3:57:06, 10-56.030N,100-38.071E,104.2,29.2546,31.9535
4377,2007/3/8,3:58:06, 10-55.971N,100-38.298E,104.7,29.2545,31.9556
4378,2007/3/8,3:59:06, 10-55.914N,100-38.525E,105.4,29.2673,31.9569
4379,2007/3/8,4:00:06, 10-55.852N,100-38.750E,104.9,29.266,31.9583
4380,2007/3/8,4:01:06, 10-55.793N,100-38.975E,104,29.2776,31.9604
4381,2007/3/8,4:02:06, 10-55.731N,100-39.200E,104.3,29.2804,31.9604
4382,2007/3/8,4:03:06, 10-55.675N,100-39.427E,106.4,29.2872,31.9603
4383,2007/3/8,4:04:06, 10-55.618N,100-39.654E,105.2,29.2894,31.9589
4384,2007/3/8,4:05:06, 10-55.561N,100-39.880E,105.1,29.293,31.9554
4385,2007/3/8,4:06:06, 10-55.501N,100-40.106E,104.3,29.2859,31.9495
4386,2007/3/8,4:07:06, 10-55.442N,100-40.332E,105.6,29.2705,31.9415
4387,2007/3/8,4:08:06, 10-55.383N,100-40.558E,106.3,29.2749,31.9333
4388,2007/3/8,4:09:06, 10-55.325N,100-40.783E,104.4,29.2552,31.9232
4389,2007/3/8,4:10:06, 10-55.264N,100-41.009E,104.5,29.2553,31.9136
4390,2007/3/8,4:11:06, 10-55.207N,100-41.236E,106.8,29.2487,31.905
4391,2007/3/8,4:12:06, 10-55.148N,100-41.461E,104.4,29.2492,31.8982
4392,2007/3/8,4:13:06, 10-55.088N,100-41.686E,103.6,29.2404,31.8913
4393,2007/3/8,4:14:06, 10-55.028N,100-41.911E,103.8,29.2465,31.8874
4394,2007/3/8,4:15:06, 10-54.974N,100-42.138E,105.2,29.2405,31.8843
4395,2007/3/8,4:16:06, 10-54.917N,100-42.364E,103.4,29.2352,31.8803
4396,2007/3/8,4:17:06, 10-54.859N,100-42.590E,104.3,29.2258,31.8761
4397,2007/3/8,4:18:06, 10-54.802N,100-42.816E,103.3,29.2412,31.8712
4398,2007/3/8,4:19:06, 10-54.744N,100-43.043E,104.7,29.2422,31.8662
4399,2007/3/8,4:20:06, 10-54.693N,100-43.269E,104.3,29.2327,31.8625
4400,2007/3/8,4:21:06, 10-54.633N,100-43.496E,105.3,29.2392,31.859
4401,2007/3/8,4:22:06, 10-54.578N,100-43.723E,102.4,29.2504,31.8581
4402,2007/3/8,4:23:06, 10-54.526N,100-43.950E,103.4,29.257,31.8583
4403,2007/3/8,4:24:06, 10-54.469N,100-44.178E,102.9,29.2646,31.8578
4404,2007/3/8,4:25:06, 10-54.411N,100-44.406E,104.5,29.2604,31.8564
4405,2007/3/8,4:26:06, 10-54.355N,100-44.634E,104.2,29.2557,31.8541
4406,2007/3/8,4:27:06, 10-54.300N,100-44.860E,103.4,29.2496,31.8519
4407,2007/3/8,4:28:06, 10-54.241N,100-45.087E,103.1,29.2512,31.8495
4408,2007/3/8,4:29:06, 10-54.184N,100-45.314E,104.1,29.258,31.8468
4409,2007/3/8,4:30:06, 10-54.132N,100-45.540E,105.8,29.234,31.8423
4410,2007/3/8,4:31:06, 10-54.077N,100-45.767E,105.1,29.2412,31.8388
4411,2007/3/8,4:32:06, 10-54.020N,100-45.995E,102.5,29.2477,31.8341
4412,2007/3/8,4:33:06, 10-53.968N,100-46.222E,101,29.2593,31.8309
4413,2007/3/8,4:34:06, 10-53.917N,100-46.451E,103.5,29.2729,31.8288
4414,2007/3/8,4:35:06, 10-53.858N,100-46.679E,101.7,29.2699,31.8275
4415,2007/3/8,4:36:06, 10-53.801N,100-46.907E,104.4,29.2711,31.8277
4416,2007/3/8,4:37:06, 10-53.747N,100-47.134E,103.5,29.2931,31.8294
4417,2007/3/8,4:38:06, 10-53.694N,100-47.363E,102.7,29.2904,31.8311
4418,2007/3/8,4:39:06, 10-53.653N,100-47.595E,100.4,29.3162,31.8344
4419,2007/3/8,4:40:06, 10-53.613N,100-47.825E,98.9,29.3309,31.8383
4420,2007/3/8,4:41:06, 10-53.571N,100-48.055E,98.6,29.319,31.8393
4421,2007/3/8,4:42:06, 10-53.519N,100-48.283E,104.5,29.3087,31.8368
4422,2007/3/8,4:43:06, 10-53.464N,100-48.511E,103.8,29.2834,31.8314
4423,2007/3/8,4:44:06, 10-53.408N,100-48.736E,102.3,29.2699,31.8237
4424,2007/3/8,4:45:06, 10-53.352N,100-48.963E,105.8,29.2596,31.8142
4425,2007/3/8,4:46:06, 10-53.293N,100-49.190E,103,29.2772,31.8045
4426,2007/3/8,4:47:06, 10-53.237N,100-49.418E,103.8,29.2519,31.7954
4427,2007/3/8,4:48:06, 10-53.184N,100-49.645E,105.2,29.2504,31.786
4428,2007/3/8,4:49:06, 10-53.130N,100-49.873E,103.6,29.2468,31.7798
4429,2007/3/8,4:50:06, 10-53.076N,100-50.100E,103,29.2364,31.7747
4430,2007/3/8,4:51:06, 10-53.020N,100-50.326E,103.4,29.2281,31.7676
4431,2007/3/8,4:52:06, 10-52.963N,100-50.552E,103.9,29.2462,31.7624
4432,2007/3/8,4:53:06, 10-52.907N,100-50.778E,103.5,29.2493,31.7598
4433,2007/3/8,4:54:06, 10-52.855N,100-51.006E,104.4,29.2639,31.7589
4434,2007/3/8,4:55:06, 10-52.799N,100-51.233E,102.6,29.27,31.759
4435,2007/3/8,4:56:06, 10-52.746N,100-51.460E,103.2,29.2628,31.7596
4436,2007/3/8,4:57:06, 10-52.693N,100-51.688E,104.3,29.2673,31.7629
4437,2007/3/8,4:58:06, 10-52.638N,100-51.917E,103.8,29.2632,31.7664
4438,2007/3/8,4:59:06, 10-52.586N,100-52.143E,101.3,29.2784,31.7728
4439,2007/3/8,5:00:06, 10-52.531N,100-52.370E,102.1,29.2875,31.776
4440,2007/3/8,5:01:06, 10-52.478N,100-52.598E,104.9,29.2667,31.775
4441,2007/3/8,5:02:06, 10-52.426N,100-52.826E,105.7,29.2521,31.7716
4442,2007/3/8,5:03:06, 10-52.373N,100-53.054E,101.9,29.264,31.7695
4443,2007/3/8,5:04:06, 10-52.317N,100-53.280E,104.3,29.2455,31.766
4444,2007/3/8,5:05:06, 10-52.265N,100-53.508E,104,29.2644,31.7651
4445,2007/3/8,5:06:06, 10-52.210N,100-53.736E,102.4,29.2737,31.7681
4446,2007/3/8,5:07:06, 10-52.158N,100-53.964E,104.3,29.2657,31.7729
4447,2007/3/8,5:08:06, 10-52.104N,100-54.192E,102.9,29.2897,31.7775
4448,2007/3/8,5:09:06, 10-52.051N,100-54.419E,101.1,29.2757,31.7808
4449,2007/3/8,5:10:06, 10-51.994N,100-54.648E,104.1,29.2697,31.7827
4450,2007/3/8,5:11:06, 10-51.942N,100-54.876E,105.1,29.2861,31.7841
4451,2007/3/8,5:12:06, 10-51.889N,100-55.103E,103,29.2711,31.7858
4452,2007/3/8,5:13:06, 10-51.833N,100-55.329E,103.3,29.2693,31.7874
4453,2007/3/8,5:14:06, 10-51.782N,100-55.556E,105.1,29.275,31.7892
4454,2007/3/8,5:15:06, 10-51.729N,100-55.784E,106.8,29.2787,31.7909
4455,2007/3/8,5:16:06, 10-51.676N,100-56.011E,102.5,29.2552,31.7929
4456,2007/3/8,5:17:06, 10-51.620N,100-56.238E,103.3,29.2727,31.7948
4457,2007/3/8,5:18:06, 10-51.567N,100-56.466E,104.5,29.2913,31.7964
4458,2007/3/8,5:19:06, 10-51.516N,100-56.694E,104.3,29.2879,31.7983
4459,2007/3/8,5:20:06, 10-51.461N,100-56.922E,102.5,29.2733,31.8006
4460,2007/3/8,5:21:06, 10-51.408N,100-57.149E,103.2,29.2786,31.801
4461,2007/3/8,5:22:06, 10-51.358N,100-57.378E,103.2,29.2678,31.8011
4462,2007/3/8,5:23:06, 10-51.305N,100-57.605E,103.5,29.264,31.8014
4463,2007/3/8,5:24:06, 10-51.251N,100-57.831E,102.2,29.2597,31.8018
4464,2007/3/8,5:25:06, 10-51.198N,100-58.058E,103,29.263,31.8015
4465,2007/3/8,5:26:06, 10-51.148N,100-58.286E,103.6,29.2567,31.8024
4466,2007/3/8,5:27:06, 10-51.094N,100-58.513E,102.2,29.2496,31.8027
4467,2007/3/8,5:28:06, 10-51.043N,100-58.740E,103.3,29.2656,31.8035
4468,2007/3/8,5:29:06, 10-50.990N,100-58.968E,101.9,29.271,31.8033
4469,2007/3/8,5:30:06, 10-50.942N,100-59.194E,102.7,29.2496,31.8041
4470,2007/3/8,5:31:06, 10-50.887N,100-59.422E,104.3,29.2773,31.8074
4471,2007/3/8,5:32:06, 10-50.834N,100-59.650E,105,29.2628,31.8115
4472,2007/3/8,5:33:06, 10-50.778N,100-59.877E,104.2,29.27,31.812
4473,2007/3/8,5:34:06, 10-50.720N,101-00.104E,104.2,29.2859,31.8079
4474,2007/3/8,5:35:06, 10-50.661N,101-00.331E,104.9,29.2945,31.8036
4475,2007/3/8,5:36:06, 10-50.607N,101-00.557E,103.2,29.3071,31.7995
4476,2007/3/8,5:37:06, 10-50.550N,101-00.783E,104.3,29.3138,31.796
4477,2007/3/8,5:38:06, 10-50.496N,101-01.010E,103.8,29.3051,31.7919
4478,2007/3/8,5:39:06, 10-50.441N,101-01.236E,103.4,29.3136,31.7884
4479,2007/3/8,5:40:06, 10-50.383N,101-01.461E,105,29.2789,31.7845
4480,2007/3/8,5:41:06, 10-50.325N,101-01.686E,106.3,29.2768,31.7801
4481,2007/3/8,5:42:06, 10-50.266N,101-01.911E,104.3,29.2909,31.7761
4482,2007/3/8,5:43:06, 10-50.207N,101-02.136E,105.6,29.269,31.7725
4483,2007/3/8,5:44:06, 10-50.148N,101-02.363E,103.7,29.2872,31.7668
4484,2007/3/8,5:45:06, 10-50.087N,101-02.587E,104,29.2811,31.7599
4485,2007/3/8,5:46:06, 10-50.030N,101-02.814E,105.5,29.2709,31.7536
4486,2007/3/8,5:47:06, 10-49.973N,101-03.039E,104.3,29.2574,31.7517
4487,2007/3/8,5:48:06, 10-49.913N,101-03.264E,104.2,29.2435,31.7483
4488,2007/3/8,5:49:06, 10-49.854N,101-03.490E,105.8,29.2658,31.7436
4489,2007/3/8,5:50:06, 10-49.797N,101-03.717E,105.8,29.26,31.7379
4490,2007/3/8,5:51:06, 10-49.738N,101-03.945E,103.9,29.2562,31.7314
4491,2007/3/8,5:52:06, 10-49.679N,101-04.170E,104,29.2539,31.7273
4492,2007/3/8,5:53:06, 10-49.621N,101-04.398E,105.7,29.2663,31.7252
4493,2007/3/8,5:54:06, 10-49.561N,101-04.625E,105.2,29.2725,31.7229
4494,2007/3/8,5:55:06, 10-49.503N,101-04.852E,103.9,29.2558,31.7213
4495,2007/3/8,5:56:06, 10-49.444N,101-05.078E,103.7,29.2691,31.7229
4496,2007/3/8,5:57:06, 10-49.387N,101-05.308E,104.8,29.2871,31.7283
4497,2007/3/8,5:58:06, 10-49.328N,101-05.533E,104.5,29.3234,31.7388
4498,2007/3/8,5:59:06, 10-49.272N,101-05.761E,104.9,29.3532,31.7524
4499,2007/3/8,6:00:06, 10-49.214N,101-05.987E,103.4,29.3653,31.7597
4500,2007/3/8,6:01:06, 10-49.155N,101-06.215E,104.6,29.342,31.7617
4501,2007/3/8,6:02:06, 10-49.096N,101-06.443E,104.2,29.3241,31.7624
4502,2007/3/8,6:03:06, 10-49.037N,101-06.673E,106.1,29.3396,31.7641
4503,2007/3/8,6:04:06, 10-48.981N,101-06.900E,104.5,29.3373,31.7686
4504,2007/3/8,6:05:06, 10-48.924N,101-07.127E,103,29.3453,31.7749
4505,2007/3/8,6:06:06, 10-48.865N,101-07.355E,103.9,29.3473,31.7799
4506,2007/3/8,6:07:06, 10-48.807N,101-07.582E,105.2,29.3518,31.7846
4507,2007/3/8,6:08:06, 10-48.751N,101-07.813E,103.4,29.3472,31.7903
4508,2007/3/8,6:09:06, 10-48.693N,101-08.040E,103,29.3368,31.7957
4509,2007/3/8,6:10:06, 10-48.634N,101-08.271E,105.4,29.3463,31.8024
4510,2007/3/8,6:11:06, 10-48.574N,101-08.502E,104.8,29.3681,31.8126
4511,2007/3/8,6:12:06, 10-48.517N,101-08.729E,103.4,29.3778,31.829
4512,2007/3/8,6:13:06, 10-48.460N,101-08.957E,103.8,29.3711,31.8385
4513,2007/3/8,6:14:06, 10-48.402N,101-09.185E,104.4,29.3872,31.8475
4514,2007/3/8,6:15:06, 10-48.345N,101-09.415E,105.5,29.4116,31.8576
4515,2007/3/8,6:16:06, 10-48.288N,101-09.643E,103.3,29.4525,31.8755
4516,2007/3/8,6:17:06, 10-48.231N,101-09.872E,105.3,29.4801,31.8896
4517,2007/3/8,6:18:06, 10-48.175N,101-10.100E,105,29.4782,31.9033
4518,2007/3/8,6:19:06, 10-48.122N,101-10.331E,103.1,29.5127,31.9175
4519,2007/3/8,6:20:06, 10-48.067N,101-10.560E,101.4,29.543,31.9258
4520,2007/3/8,6:21:06, 10-48.014N,101-10.789E,102.2,29.5038,31.9256
4521,2007/3/8,6:22:06, 10-47.963N,101-11.018E,103.8,29.5256,31.9212
4522,2007/3/8,6:23:06, 10-47.912N,101-11.247E,103.4,29.5003,31.9119
4523,2007/3/8,6:24:06, 10-47.859N,101-11.475E,101.2,29.4909,31.9003
4524,2007/3/8,6:25:06, 10-47.808N,101-11.704E,104.6,29.4933,31.8908
4525,2007/3/8,6:26:06, 10-47.758N,101-11.932E,103.7,29.4944,31.8833
4526,2007/3/8,6:27:06, 10-47.706N,101-12.161E,102.7,29.4996,31.8796
4527,2007/3/8,6:28:06, 10-47.652N,101-12.390E,102.8,29.497,31.8751
4528,2007/3/8,6:29:06, 10-47.600N,101-12.618E,104.8,29.4937,31.8673
4529,2007/3/8,6:30:06, 10-47.546N,101-12.846E,103.9,29.4799,31.8546
4530,2007/3/8,6:31:06, 10-47.494N,101-13.074E,103,29.4535,31.839
4531,2007/3/8,6:32:06, 10-47.439N,101-13.301E,103.5,29.4478,31.8282
4532,2007/3/8,6:33:06, 10-47.387N,101-13.530E,104.4,29.458,31.8207
4533,2007/3/8,6:34:06, 10-47.334N,101-13.758E,101.8,29.4533,31.8136
4534,2007/3/8,6:35:06, 10-47.282N,101-13.986E,105.5,29.4689,31.8031
4535,2007/3/8,6:36:06, 10-47.229N,101-14.215E,103.3,29.3805,31.7671
4536,2007/3/8,6:37:06, 10-47.175N,101-14.444E,104.9,29.3156,31.7233
4537,2007/3/8,6:38:06, 10-47.082N,101-14.656E,113.5,29.3131,31.7048
4538,2007/3/8,6:39:06, 10-46.956N,101-14.845E,123.8,29.3069,31.6967
4539,2007/3/8,6:40:06, 10-46.826N,101-15.033E,126.8,29.3372,31.6954
4540,2007/3/8,6:41:06, 10-46.695N,101-15.222E,126.4,29.3485,31.6968
4541,2007/3/8,6:42:06, 10-46.562N,101-15.409E,124.7,29.354,31.7
4542,2007/3/8,6:43:06, 10-46.430N,101-15.598E,125.7,29.3431,31.7032
4543,2007/3/8,6:44:06, 10-46.301N,101-15.787E,127.6,29.3518,31.7075
4544,2007/3/8,6:45:06, 10-46.166N,101-15.975E,124.7,29.3607,31.7167
4545,2007/3/8,6:46:06, 10-46.038N,101-16.163E,125,29.3901,31.7337
4546,2007/3/8,6:47:06, 10-45.899N,101-16.349E,122.9,29.4471,31.7573
4547,2007/3/8,6:48:06, 10-45.765N,101-16.541E,125.9,29.4857,31.7817
4548,2007/3/8,6:49:06, 10-45.631N,101-16.725E,127.6,29.5105,31.8024
4549,2007/3/8,6:50:06, 10-45.494N,101-16.909E,126.7,29.485,31.8117
4550,2007/3/8,6:51:06, 10-45.355N,101-17.092E,129.7,29.4807,31.8171
4551,2007/3/8,6:52:06, 10-45.215N,101-17.273E,126.1,29.4737,31.8238
4552,2007/3/8,6:53:06, 10-45.071N,101-17.454E,126.5,29.4879,31.833
4553,2007/3/8,6:54:06, 10-44.928N,101-17.637E,129.7,29.4961,31.8414
4554,2007/3/8,6:55:06, 10-44.786N,101-17.815E,129.7,29.4996,31.8496
4555,2007/3/8,6:56:06, 10-44.640N,101-17.997E,127.8,29.5233,31.86
4556,2007/3/8,6:57:06, 10-44.502N,101-18.180E,125.6,29.5424,31.8712
4557,2007/3/8,6:58:06, 10-44.360N,101-18.362E,130.1,29.5347,31.8817